Location: El Centro
(32.7920°N, 115.5620°W)
Time: 09:20:10
(UTC-08:00)

Amateur Radio Satellites - All Passes

Search period start: 24 February 2017 08:50
Search period end: 25 February 2017 08:50
Location: El Centro, 32.7920°N, 115.5620°W

Satellite Date Start Highest point End Downlink Frequencies (MHz)
Time Altitude Azimuth
Oscar 11 24 Feb 08:57:51 09:02:05 55° 285° (WNW) 09:06:16 .
ISS 24 Feb 08:59:00 08:59:50 11° 331° (NNW) 09:00:40 437.550
UWE-3 24 Feb 09:13:48 09:16:57 18° 292° (WNW) 09:20:05 435.000/436.395/437.385
HO-68 24 Feb 09:27:14 09:30:00 13° 303° (WNW) 09:32:45 435.675
DELFI C3 24 Feb 09:27:52 09:31:48 80° 283° (WNW) 09:35:42 145.870
ZACube-1 24 Feb 09:37:48 09:40:38 16° 292° (WNW) 09:43:26 437.345
DUCHIFAT 1 24 Feb 09:43:07 09:44:36 12° 67° (ENE) 09:46:06 145.980
O/OREOS (USA 219) 24 Feb 09:46:48 09:49:46 17° 260° (W) 09:52:44 437.305
EO-79 24 Feb 09:51:01 09:53:54 18° 69° (ENE) 09:56:48 145.935-145.965
POLYITAN 1 24 Feb 10:07:18 10:10:57 29° 72° (ENE) 10:14:37 437.675
NANOSAT C BR1 24 Feb 10:08:01 10:11:32 26° 71° (ENE) 10:15:04 145.865
QB50P2 24 Feb 10:10:02 10:13:50 33° 72° (ENE) 10:17:40 145.880/145.840
UNISAT 6 24 Feb 10:13:47 10:16:38 17° 266° (W) 10:19:32 437.425
TIGRISAT 24 Feb 10:14:16 10:17:16 18° 266° (W) 10:20:20 435.000
YUBILEINY 24 Feb 10:24:14 10:33:03 77° 277° (W) 10:41:54 435.215
FO-29 24 Feb 10:27:16 10:33:48 48° 262° (W) 10:41:04 435.910
LO-87 24 Feb 10:31:50 10:35:25 68° 100° (E) 10:39:01 145.935 - 145.965
AIST 2D 24 Feb 10:40:56 10:44:23 51° 260° (W) 10:47:52 435.315
BUGSAT 1 24 Feb 10:43:14 10:46:07 19° 70° (ENE) 10:49:02 437.445
ESTCUBE 1 24 Feb 10:45:47 10:50:03 42° 99° (E) 10:54:16 437.505/2401.250
Oscar 19 24 Feb 11:02:38 11:03:44 11° 63° (ENE) 11:04:50 437.125/150
50 SAT 24 Feb 11:07:24 11:08:22 11° 94° (E) 11:09:20 437.505
DUCHIFAT 1 24 Feb 11:15:48 11:19:49 46° 261° (W) 11:23:52 145.980
VELOX 1 24 Feb 11:16:14 11:20:03 28° 97° (E) 11:23:51 145.980
EO-79 24 Feb 11:25:46 11:29:25 28° 263° (W) 11:33:06 145.935-145.965
SPROUT 24 Feb 11:32:17 11:36:14 35° 98° (E) 11:40:11 437.525
Gurwin Techsat 1B 24 Feb 11:37:21 11:39:58 14° 64° (ENE) 11:42:34 435.225
POLYITAN 1 24 Feb 11:43:49 11:46:42 18° 265° (W) 11:49:36 437.675
NANOSAT C BR1 24 Feb 11:44:10 11:47:11 19° 265° (W) 11:50:14 145.865
QB50P2 24 Feb 11:47:13 11:49:41 15° 266° (W) 11:52:10 145.880/145.840
BUGSAT 1 24 Feb 12:17:58 12:21:17 24° 263° (W) 12:24:39 437.445
ESTCUBE 1 24 Feb 12:24:04 12:26:26 14° 293° (WNW) 12:28:46 437.505/2401.250
YUBILEINY 24 Feb 12:28:34 12:31:15 11° 295° (WNW) 12:33:56 435.215
Oscar 19 24 Feb 12:37:12 12:42:21 76° 258° (WSW) 12:47:31 437.125/150
50 SAT 24 Feb 12:38:30 12:41:32 29° 287° (WNW) 12:44:33 437.505
DX 1 24 Feb 12:47:05 12:51:20 55° 285° (WNW) 12:55:34 434.975-435.025
AO-7 24 Feb 12:48:18 12:53:39 19° 57° (ENE) 12:59:00 .
VELOX 1 24 Feb 12:53:02 12:56:17 20° 291° (WNW) 12:59:32 145.980
AO-85 24 Feb 13:01:00 13:04:44 43° 59° (ENE) 13:08:34 145.980
UKube-1 24 Feb 13:01:16 13:05:28 53° 285° (WNW) 13:09:40 .
SPROUT 24 Feb 13:09:14 13:11:49 16° 292° (WNW) 13:14:24 437.525
ITAMSAT 1 24 Feb 13:10:26 13:14:04 20° 67° (ENE) 13:17:43 435.822/435.867
Gurwin Techsat 1B 24 Feb 13:14:05 13:19:19 62° 259° (WSW) 13:24:36 435.225
ISS 24 Feb 13:51:52 13:53:49 15° 32° (NNE) 13:55:47 437.550
ITUPSAT 1 24 Feb 14:16:53 14:21:36 55° 101° (E) 14:26:15 437.325
Tancredo 1 24 Feb 14:19:18 14:22:03 25° 37° (NE) 14:24:47 437.200
BEESAT 24 Feb 14:24:04 14:28:50 69° 102° (ESE) 14:33:34 436.000
AO-7 24 Feb 14:37:01 14:45:24 84° 253° (WSW) 14:53:48 .
AO-85 24 Feb 14:43:44 14:44:42 11° 251° (WSW) 14:45:42 145.980
BEESAT 3 24 Feb 14:45:17 14:48:54 31° 57° (ENE) 14:52:28 437.485
ITAMSAT 1 24 Feb 14:48:16 14:53:10 42° 261° (W) 14:58:05 435.822/435.867
MOZHAYETS 4 24 Feb 14:53:18 14:57:45 48° 100° (E) 15:02:09
PCSat 24 Feb 15:04:05 15:09:02 38° 109° (ESE) 15:14:01 145.827
BEESAT 2 24 Feb 15:21:28 15:25:08 32° 57° (ENE) 15:28:45 435.950
ISS 24 Feb 15:27:19 15:30:29 50° 228° (SW) 15:33:38 437.550
KKS-1 24 Feb 15:31:05 15:34:58 29° 98° (E) 15:38:50 437.445
RS-15 24 Feb 15:32:01 15:41:56 33° 104° (ESE) 15:52:09 29.354- 29.394
CUBESAT XI-V 24 Feb 15:50:33 15:54:33 29° 97° (E) 15:58:31 437.345
CUTE-I 24 Feb 15:53:30 15:55:12 11° 63° (ENE) 15:56:54 437.470
NO-84 24 Feb 15:54:52 15:57:49 46° 127° (SE) 16:01:02 435.350 FM
Tancredo 1 24 Feb 15:55:44 15:58:13 21° 231° (SW) 16:00:41 437.200
ITUPSAT 1 24 Feb 15:56:47 15:58:53 13° 295° (WNW) 16:00:59 437.325
BEESAT 24 Feb 16:05:19 16:05:58 10° 296° (WNW) 16:06:37 436.000
STARS 24 Feb 16:07:30 16:11:28 32° 98° (E) 16:15:24 437.465
BEESAT 3 24 Feb 16:23:43 16:26:12 16° 251° (WSW) 16:28:42 437.485
MOZHAYETS 4 24 Feb 16:32:16 16:34:25 13° 294° (WNW) 16:36:35
AO-7 24 Feb 16:35:51 16:39:01 12° 268° (W) 16:42:12 .
DOVE 4 24 Feb 16:46:56 16:50:50 41° 74° (ENE) 16:54:45 437.250
PCSat 24 Feb 16:48:08 16:52:29 24° 304° (NW) 16:56:51 145.827
M-CUBED/EXP-1 PRIME 24 Feb 16:51:19 16:55:05 49° 105° (ESE) 16:59:08 437.505
KAITUO 1B 24 Feb 16:51:48 16:55:15 33° 74° (ENE) 16:58:43 145.475/437.950
XW-2F 24 Feb 16:54:56 16:58:36 45° 75° (ENE) 17:02:17 145.980 - 146.000
XW-2D 24 Feb 16:58:59 17:02:43 56° 77° (ENE) 17:06:31 145.860 - 145.880
BEESAT 2 24 Feb 17:00:03 17:02:37 16° 251° (WSW) 17:05:08 435.950
XW-2B 24 Feb 17:03:58 17:07:45 64° 77° (ENE) 17:11:35 145.730 - 145.750
KKS-1 24 Feb 17:07:59 17:11:18 21° 291° (WNW) 17:14:37 437.445
XW-2C 24 Feb 17:12:31 17:16:21 86° 78° (ENE) 17:20:13 145.795 - 145.815
XW-2A 24 Feb 17:22:12 17:23:19 11° 69° (ENE) 17:24:26 145.665 - 145.685
NUDT-PHONESAT 24 Feb 17:27:23 17:31:07 74° 260° (W) 17:34:54 437.300
CUBESAT XI-V 24 Feb 17:28:16 17:31:42 21° 290° (WNW) 17:35:08 437.345
LilacSat-2 24 Feb 17:28:35 17:32:22 53° 260° (W) 17:36:11 437.200
CUTE-I 24 Feb 17:29:13 17:34:31 75° 258° (WSW) 17:39:53 437.470
NO-84 24 Feb 17:34:06 17:35:45 13° 325° (NW) 17:37:29 435.350 FM
CUTE 1.7 + AOD 2 24 Feb 17:40:56 17:43:42 17° 69° (ENE) 17:46:27 437.475
RS-15 24 Feb 17:41:50 17:53:32 63° 302° (WNW) 18:05:48 29.354- 29.394
STARS 24 Feb 17:44:28 17:47:32 19° 291° (WNW) 17:50:35 437.465
HO-68 24 Feb 17:59:43 18:06:31 48° 69° (ENE) 18:13:19 435.675
DOVE 4 24 Feb 18:27:34 18:28:43 11° 267° (W) 18:29:52 437.250
KAITUO 1B 24 Feb 18:27:53 18:29:21 12° 267° (W) 18:30:49 145.475/437.950
M-CUBED/EXP-1 PRIME 24 Feb 18:28:26 18:29:12 10° 296° (WNW) 18:29:58 437.505
UWE-3 24 Feb 18:30:02 18:32:53 17° 68° (ENE) 18:35:46 435.000/436.395/437.385
AAUSAT CUBESAT 2 24 Feb 18:30:53 18:33:52 19° 70° (ENE) 18:36:52 437.432
SEEDS 24 Feb 18:38:06 18:42:14 53° 75° (ENE) 18:46:22 437.485
ZACube-1 24 Feb 18:52:38 18:55:35 18° 69° (ENE) 18:58:34 437.345
XW-2A 24 Feb 18:52:50 18:55:46 27° 263° (W) 18:58:44 145.665 - 145.685
STRAND 1 24 Feb 19:11:21 19:16:31 85° 282° (WNW) 19:21:39 437.568
CUTE 1.7 + AOD 2 24 Feb 19:15:24 19:19:13 32° 262° (W) 19:23:04 437.475
CUBEBUG 2 24 Feb 19:25:43 19:30:02 62° 260° (W) 19:34:31 437.445
AO-73 24 Feb 19:39:54 19:44:13 57° 75° (ENE) 19:48:39 145.935
Oscar 11 24 Feb 19:47:38 19:51:55 62° 76° (ENE) 19:56:14 .
HO-68 24 Feb 19:48:29 19:54:20 27° 263° (W) 20:00:13 435.675
RS-15 24 Feb 20:01:19 20:09:13 19° 329° (NNW) 20:17:17 29.354- 29.394
UWE-3 24 Feb 20:04:57 20:08:58 35° 263° (W) 20:13:08 435.000/436.395/437.385
AAUSAT CUBESAT 2 24 Feb 20:05:39 20:09:08 26° 263° (W) 20:12:37 437.432
DELFI C3 24 Feb 20:09:07 20:12:33 29° 73° (ENE) 20:16:00 145.870
JUGNU 24 Feb 20:15:38 20:19:05 16° 167° (SSE) 20:22:32 437.505
ZACube-1 24 Feb 20:27:33 20:31:32 34° 263° (W) 20:35:38 437.345
PRISM 24 Feb 20:33:49 20:37:16 26° 98° (E) 20:40:44 437.425
UNISAT 6 24 Feb 20:34:19 20:35:34 11° 92° (E) 20:36:49 437.425
TIGRISAT 24 Feb 20:35:42 20:36:02 10° 91° (E) 20:36:23 435.000
YUBILEINY 24 Feb 20:40:22 20:48:35 44° 78° (ENE) 20:56:43 435.215
LO-87 24 Feb 21:05:22 21:07:08 13° 70° (ENE) 21:08:55 145.935 - 145.965
SO-50 24 Feb 21:27:47 21:32:28 70° 117° (ESE) 21:37:06 436.795
ESTCUBE 1 24 Feb 21:41:20 21:44:55 24° 70° (ENE) 21:48:30 437.505/2401.250
FO-29 24 Feb 21:42:28 21:49:17 37° 96° (E) 21:55:25 435.910
DELFI C3 24 Feb 21:45:01 21:47:21 15° 266° (W) 21:49:41 145.870
JUGNU 24 Feb 22:03:00 22:07:26 22° 177° (S) 22:11:54 437.505
UNISAT 6 24 Feb 22:07:57 22:12:33 56° 285° (WNW) 22:17:04 437.425
TIGRISAT 24 Feb 22:08:24 22:13:03 61° 284° (WNW) 22:17:35 435.000
PRISM 24 Feb 22:09:31 22:12:20 18° 291° (WNW) 22:15:09 437.425
VELOX 1 24 Feb 22:10:22 22:12:52 15° 68° (ENE) 22:15:22 145.980
AIST 2D 24 Feb 22:11:37 22:13:44 15° 95° (E) 22:15:49 435.315
O/OREOS (USA 219) 24 Feb 22:13:54 22:18:22 85° 289° (WNW) 22:22:52 437.305
SPROUT 24 Feb 22:22:29 22:25:02 16° 69° (ENE) 22:27:36 437.525
RS-15 24 Feb 22:26:13 22:29:34 11° 8° (N) 22:32:55 29.354- 29.394
LO-87 24 Feb 22:37:20 22:40:19 25° 263° (W) 22:43:19 145.935 - 145.965
YUBILEINY 24 Feb 22:37:34 22:45:02 33° 274° (W) 22:52:29 435.215
SRMSAT 24 Feb 23:01:45 23:05:35 18° 168° (SSE) 23:09:26 437.500
DUCHIFAT 1 24 Feb 23:04:05 23:08:02 36° 98° (E) 23:11:57 145.980
50 SAT 24 Feb 23:07:40 23:11:01 44° 75° (ENE) 23:14:22 437.505
SO-50 24 Feb 23:11:25 23:13:22 12° 312° (NW) 23:15:18 436.795
EO-79 24 Feb 23:14:02 23:18:17 61° 100° (E) 23:22:31 145.935-145.965
ESTCUBE 1 24 Feb 23:17:50 23:21:34 25° 263° (W) 23:25:18 437.505/2401.250
FO-29 24 Feb 23:27:23 23:34:07 36° 293° (WNW) 23:40:16 435.910
NANOSAT C BR1 24 Feb 23:31:20 23:35:37 88° 283° (WNW) 23:39:53 145.865
POLYITAN 1 24 Feb 23:31:22 23:35:40 80° 283° (WNW) 23:39:57 437.675
QB50P2 24 Feb 23:34:20 23:38:37 67° 284° (WNW) 23:42:50 145.880/145.840
DX 1 24 Feb 23:37:45 23:42:03 69° 75° (ENE) 23:46:21 434.975-435.025
AIST 2D 24 Feb 23:44:05 23:46:54 22° 287° (WNW) 23:49:42 435.315
VELOX 1 24 Feb 23:44:52 23:48:57 38° 261° (W) 23:53:03 145.980
UKube-1 24 Feb 23:50:52 23:55:07 69° 77° (ENE) 23:59:24 .
JUGNU 24 Feb 23:51:36 23:55:51 20° 187° (S) 00:00:05 437.505
SPROUT 24 Feb 23:56:46 00:00:37 34° 262° (W) 00:04:31 437.525
PCSat 24 Feb 23:57:49 00:00:31 14° 50° (NE) 00:03:11 145.827
BUGSAT 1 25 Feb 00:02:58 00:07:11 62° 101° (E) 00:11:23 437.445
NO-84 25 Feb 00:09:07 00:13:16 53° 46° (NE) 00:17:35 435.350 FM
RS-15 25 Feb 00:38:03 00:48:22 30° 42° (NE) 00:58:18 29.354- 29.394
DUCHIFAT 1 25 Feb 00:40:57 00:43:21 15° 292° (WNW) 00:45:45 145.980
SRMSAT 25 Feb 00:49:31 00:54:08 23° 178° (S) 00:58:47 437.500
Oscar 19 25 Feb 00:53:17 00:58:18 55° 101° (E) 01:03:19 437.125/150
ITUPSAT 1 25 Feb 01:19:12 01:23:38 39° 72° (ENE) 01:28:05 437.325
BEESAT 25 Feb 01:25:55 01:30:29 47° 73° (ENE) 01:35:04 436.000
Gurwin Techsat 1B 25 Feb 01:34:42 01:40:03 77° 103° (ESE) 01:45:21 435.225
PCSat 25 Feb 01:39:02 01:44:28 76° 247° (WSW) 01:49:51 145.827
JUGNU 25 Feb 01:41:59 01:44:11 12° 196° (SSW) 01:46:24 437.505
NO-84 25 Feb 01:48:00 01:50:42 16° 239° (WSW) 01:53:25 435.350 FM
MOZHAYETS 4 25 Feb 01:50:55 01:54:51 28° 71° (ENE) 01:58:47
KKS-1 25 Feb 02:25:54 02:28:33 16° 68° (ENE) 02:31:14 437.445
Oscar 19 25 Feb 02:34:22 02:37:07 15° 295° (WNW) 02:39:50 437.125/150
SRMSAT 25 Feb 02:38:27 02:42:43 20° 189° (S) 02:47:00 437.500
AO-7 25 Feb 02:44:02 02:51:52 44° 101° (E) 02:59:38 .
RS-15 25 Feb 02:49:59 03:02:14 81° 246° (WSW) 03:13:52 29.354- 29.394
CUBESAT XI-V 25 Feb 02:50:13 02:53:21 18° 69° (ENE) 02:56:30 437.345
ITUPSAT 1 25 Feb 02:58:24 03:01:32 17° 265° (W) 03:04:41 437.325
STARS 25 Feb 03:00:46 03:03:32 17° 68° (ENE) 03:06:18 437.465
ITAMSAT 1 25 Feb 03:05:13 03:10:28 82° 283° (WNW) 03:15:41 435.822/435.867
BEESAT 25 Feb 03:05:59 03:08:26 14° 266° (W) 03:10:54 436.000
AO-85 25 Feb 03:10:36 03:15:06 46° 115° (ESE) 03:19:18 145.980
Gurwin Techsat 1B 25 Feb 03:17:48 03:19:16 11° 297° (WNW) 03:20:44 435.225
MOZHAYETS 4 25 Feb 03:28:18 03:31:55 22° 264° (W) 03:35:34
M-CUBED/EXP-1 PRIME 25 Feb 03:34:33 03:37:16 24° 68° (ENE) 03:39:55 437.505
KKS-1 25 Feb 04:00:42 04:04:46 37° 261° (W) 04:08:53 437.445
CUBESAT XI-V 25 Feb 04:26:08 04:30:25 35° 262° (W) 04:34:42 437.345
SRMSAT 25 Feb 04:29:30 04:31:14 11° 197° (SSW) 04:32:58 437.500
BEESAT 3 25 Feb 04:32:20 04:34:34 15° 109° (ESE) 04:36:48 437.485
STARS 25 Feb 04:35:36 04:39:33 34° 262° (W) 04:43:33 437.465
AO-7 25 Feb 04:37:05 04:44:22 36° 297° (WNW) 04:51:39 .
DOVE 4 25 Feb 04:49:51 04:53:15 19° 95° (E) 04:56:45 437.250
XW-2C 25 Feb 04:51:27 04:53:03 12° 93° (E) 04:54:38 145.795 - 145.815
AO-85 25 Feb 04:52:53 04:55:38 16° 307° (NW) 04:58:18 145.980
NUDT-PHONESAT 25 Feb 05:03:49 05:05:52 14° 94° (E) 05:07:55 437.300
RS-15 25 Feb 05:06:49 05:12:38 15° 263° (W) 05:18:21 29.354- 29.394
LilacSat-2 25 Feb 05:06:49 05:09:47 21° 96° (E) 05:12:43 437.200
BEESAT 2 25 Feb 05:09:51 05:12:15 16° 109° (ESE) 05:14:41 435.950
M-CUBED/EXP-1 PRIME 25 Feb 05:10:24 05:11:44 12° 260° (W) 05:13:03 437.505
CUTE-I 25 Feb 05:50:45 05:56:07 64° 102° (ESE) 06:01:26 437.470
KAITUO 1B 25 Feb 06:00:57 06:04:44 87° 275° (W) 06:08:27 145.475/437.950
SO-50 25 Feb 06:04:15 06:07:28 19° 52° (NE) 06:10:40 436.795
XW-2F 25 Feb 06:05:24 06:09:09 61° 284° (WNW) 06:12:52 145.980 - 146.000
BEESAT 3 25 Feb 06:08:20 06:11:51 32° 303° (WNW) 06:15:25 437.485
XW-2D 25 Feb 06:09:59 06:13:41 48° 285° (WNW) 06:17:19 145.860 - 145.880
XW-2B 25 Feb 06:15:05 06:18:43 43° 285° (WNW) 06:22:18 145.730 - 145.750
XW-2A 25 Feb 06:19:11 06:21:53 21° 96° (E) 06:24:34 145.665 - 145.685
STRAND 1 25 Feb 06:22:34 06:27:41 86° 75° (ENE) 06:32:51 437.568
XW-2C 25 Feb 06:23:53 06:27:20 32° 286° (WNW) 06:30:43 145.795 - 145.815
DOVE 4 25 Feb 06:26:32 06:30:55 37° 286° (WNW) 06:35:33 437.250
ISS 25 Feb 06:27:26 06:30:30 38° 131° (SE) 06:33:35 437.550
SEEDS 25 Feb 06:28:19 06:29:58 12° 93° (E) 06:31:35 437.485
NUDT-PHONESAT 25 Feb 06:36:36 06:39:48 27° 287° (WNW) 06:42:58 437.300
LilacSat-2 25 Feb 06:41:07 06:43:54 19° 289° (WNW) 06:46:40 437.200
BEESAT 2 25 Feb 06:46:12 06:49:44 31° 303° (WNW) 06:53:18 435.950
Tancredo 1 25 Feb 06:53:20 06:56:35 89° 130° (SE) 06:59:51 437.200
CUTE 1.7 + AOD 2 25 Feb 07:04:08 07:08:18 58° 101° (E) 07:12:25 437.475
HO-68 25 Feb 07:19:19 07:26:29 76° 104° (ESE) 07:33:37 435.675
CUBEBUG 2 25 Feb 07:20:54 07:25:22 39° 98° (E) 07:29:45 437.445
PRISM 25 Feb 07:21:07 07:22:14 11° 67° (ENE) 07:23:19 437.425
CUTE-I 25 Feb 07:32:58 07:35:32 14° 296° (WNW) 07:38:06 437.470
AO-73 25 Feb 07:33:40 07:36:26 16° 93° (E) 07:39:10 145.935
Oscar 11 25 Feb 07:40:32 07:43:10 16° 94° (E) 07:45:47 .
SO-50 25 Feb 07:43:53 07:48:01 37° 247° (WSW) 07:52:07 436.795
AAUSAT CUBESAT 2 25 Feb 07:51:17 07:55:23 65° 101° (E) 07:59:26 437.432
XW-2A 25 Feb 07:52:21 07:54:27 15° 289° (WNW) 07:56:32 145.665 - 145.685
FO-29 25 Feb 07:53:41 07:55:23 11° 56° (NE) 07:57:06 435.910
UWE-3 25 Feb 07:58:26 08:03:05 65° 101° (E) 08:07:36 435.000/436.395/437.385
SEEDS 25 Feb 08:01:53 08:05:47 40° 286° (WNW) 08:09:39 437.485
ISS 25 Feb 08:04:44 08:07:04 18° 326° (NW) 08:09:23 437.550
ZACube-1 25 Feb 08:19:46 08:24:17 65° 100° (E) 08:28:42 437.345
O/OREOS (USA 219) 25 Feb 08:28:12 08:32:48 87° 73° (ENE) 08:37:24 437.305
Tancredo 1 25 Feb 08:32:31 08:33:16 11° 331° (NNW) 08:34:02 437.200
